Wetterdaten: Donnerstag, 14.05.2015
Datum Zeit Temp. A. Mod.Schuppen Waschkche Feuchte A. Luftdruck Regen Wind Richtung Richtung Sonnenschein Helligkeit Solar
14.05.2015 00:02 12,0 C 9,5 C 18,1 C 62 % 1015,0 hPa 0,0 l/m 10,1 km/h (2 Bft) N-NO45 20 0 min 0 lux 0 W/m
14.05.2015 00:08 11,9 C 9,6 C 18,1 C 62 % 1015,0 hPa 0,0 l/m 13,8 km/h (3 Bft) N-NO67.5 25 0 min 0 lux 0 W/m
14.05.2015 00:13 11,9 C 9,4 C 18,1 C 62 % 1015,0 hPa 0,0 l/m 9,2 km/h (2 Bft) N45 360 0 min 0 lux 0 W/m
14.05.2015 00:18 11,8 C 9,1 C 18,1 C 62 % 1015,0 hPa 0,0 l/m 12,0 km/h (2 Bft) N67.5 10 0 min 0 lux 0 W/m
14.05.2015 00:23 11,6 C 9,1 C 18,1 C 62 % 1015,0 hPa 0,0 l/m 14,4 km/h (3 Bft) N45 10 0 min 0 lux 0 W/m
14.05.2015 00:28 11,6 C 9,0 C 18,1 C 62 % 1015,0 hPa 0,0 l/m 14,0 km/h (3 Bft) N22.5 10 0 min 0 lux 0 W/m
14.05.2015 00:32 11,6 C 8,7 C 18,0 C 63 % 1015,0 hPa 0,0 l/m 4,5 km/h (1 Bft) N22.5 10 0 min 0 lux 0 W/m
14.05.2015 00:38 11,5 C 8,5 C 18,0 C 63 % 1015,0 hPa 0,0 l/m 4,2 km/h (1 Bft) N-NO22.5 15 0 min 0 lux 0 W/m
14.05.2015 00:43 11,4 C 8,1 C 18,0 C 64 % 1015,0 hPa 0,0 l/m 4,2 km/h (1 Bft) N-NO22.5 15 0 min 0 lux 0 W/m
14.05.2015 00:48 11,2 C 7,6 C 18,0 C 64 % 1015,0 hPa 0,0 l/m 0,1 km/h (0 Bft) N 10 0 min 0 lux 0 W/m
14.05.2015 00:53 11,0 C 7,4 C 18,0 C 64 % 1015,0 hPa 0,0 l/m 0,0 km/h (0 Bft) N 350 0 min 0 lux 0 W/m
14.05.2015 00:58 11,0 C 7,3 C 18,0 C 64 % 1015,0 hPa 0,0 l/m 1,0 km/h (0 Bft) N-NW22.5 335 0 min 0 lux 0 W/m
14.05.2015 01:03 10,9 C 7,2 C 18,0 C 64 % 1015,0 hPa 0,0 l/m 1,0 km/h (0 Bft) N-NW22.5 335 0 min 0 lux 0 W/m
14.05.2015 01:08 10,7 C 7,0 C 18,0 C 66 % 1014,0 hPa 0,0 l/m 0,7 km/h (0 Bft) N 350 0 min 0 lux 0 W/m
14.05.2015 01:13 10,7 C 7,0 C 17,9 C 66 % 1014,0 hPa 0,0 l/m 7,8 km/h (2 Bft) N-NO22.5 15 0 min 0 lux 0 W/m
14.05.2015 01:18 10,5 C 7,0 C 18,0 C 66 % 1014,0 hPa 0,0 l/m 7,8 km/h (2 Bft) N22.5 5 0 min 0 lux 0 W/m
14.05.2015 01:23 10,4 C 7,0 C 17,9 C 66 % 1014,0 hPa 0,0 l/m 4,6 km/h (1 Bft) N-NO22.5 25 0 min 0 lux 0 W/m
14.05.2015 01:28 10,4 C 6,9 C 17,9 C 66 % 1014,0 hPa 0,0 l/m 7,1 km/h (2 Bft) N-NO45 15 0 min 0 lux 0 W/m
14.05.2015 01:32 10,3 C 7,0 C 17,9 C 67 % 1014,0 hPa 0,0 l/m 9,6 km/h (2 Bft) N-NO22.5 25 0 min 0 lux 0 W/m
14.05.2015 01:37 10,2 C 7,0 C 17,9 C 68 % 1014,0 hPa 0,0 l/m 9,8 km/h (2 Bft) N22.5 10 0 min 0 lux 0 W/m
14.05.2015 01:43 10,1 C 7,0 C 17,9 C 68 % 1014,0 hPa 0,0 l/m 7,7 km/h (2 Bft) N22.5 10 0 min 0 lux 0 W/m
14.05.2015 01:48 10,1 C 6,8 C 17,9 C 68 % 1014,0 hPa 0,0 l/m 7,8 km/h (2 Bft) N22.5 10 0 min 0 lux 0 W/m
14.05.2015 01:53 10,0 C 6,7 C 17,8 C 68 % 1014,0 hPa 0,0 l/m 6,0 km/h (2 Bft) N22.5 5 0 min 0 lux 0 W/m
14.05.2015 01:58 10,0 C 6,5 C 17,8 C 68 % 1015,0 hPa 0,0 l/m 6,8 km/h (2 Bft) N22.5 360 0 min 0 lux 0 W/m
14.05.2015 02:03 9,9 C 6,5 C 17,8 C 69 % 1015,0 hPa 0,0 l/m 6,8 km/h (2 Bft) N22.5 355 0 min 0 lux 0 W/m
14.05.2015 02:08 9,8 C 6,6 C 17,8 C 69 % 1015,0 hPa 0,0 l/m 8,9 km/h (2 Bft) N-NO22.5 15 0 min 0 lux 0 W/m
14.05.2015 02:13 9,8 C 6,7 C 17,8 C 69 % 1015,0 hPa 0,0 l/m 16,5 km/h (3 Bft) N-NO45 25 0 min 0 lux 0 W/m
14.05.2015 02:18 10,0 C 6,9 C 17,7 C 68 % 1015,0 hPa 0,0 l/m 20,5 km/h (4 Bft) N-NO45 20 0 min 0 lux 0 W/m
14.05.2015 02:23 10,0 C 7,0 C 17,7 C 68 % 1015,0 hPa 0,0 l/m 15,8 km/h (3 Bft) NO45 35 0 min 0 lux 0 W/m
14.05.2015 02:28 10,1 C 6,9 C 17,7 C 67 % 1015,0 hPa 0,0 l/m 13,9 km/h (3 Bft) NO67.5 40 0 min 0 lux 0 W/m
14.05.2015 02:33 10,0 C 6,9 C 17,7 C 68 % 1015,0 hPa 0,0 l/m 19,3 km/h (3 Bft) N-NO45 30 0 min 0 lux 0 W/m
14.05.2015 02:37 10,0 C 7,0 C 17,7 C 68 % 1015,0 hPa 0,0 l/m 18,5 km/h (3 Bft) N-NO45 25 0 min 0 lux 0 W/m
14.05.2015 02:43 10,0 C 7,0 C 17,7 C 67 % 1015,0 hPa 0,0 l/m 25,6 km/h (4 Bft) N-NO45 30 0 min 0 lux 0 W/m
14.05.2015 02:48 10,0 C 7,0 C 17,6 C 67 % 1015,0 hPa 0,0 l/m 16,3 km/h (3 Bft) N-NO67.5 25 0 min 0 lux 0 W/m
14.05.2015 02:53 10,0 C 7,0 C 17,6 C 67 % 1015,0 hPa 0,0 l/m 14,3 km/h (3 Bft) N-NO67.5 25 0 min 0 lux 0 W/m
14.05.2015 02:58 9,9 C 6,8 C 17,6 C 67 % 1015,0 hPa 0,0 l/m 16,4 km/h (3 Bft) NO22.5 35 0 min 0 lux 0 W/m
14.05.2015 03:03 9,9 C 6,8 C 17,6 C 67 % 1015,0 hPa 0,0 l/m 15,5 km/h (3 Bft) N-NO22.5 15 0 min 0 lux 0 W/m
14.05.2015 03:07 9,8 C 6,6 C 17,5 C 68 % 1015,0 hPa 0,0 l/m 11,7 km/h (2 Bft) N22.5 10 0 min 0 lux 0 W/m
14.05.2015 03:13 9,6 C 6,4 C 17,5 C 69 % 1015,0 hPa 0,0 l/m 14,0 km/h (3 Bft) N-NO22.5 25 0 min 0 lux 0 W/m
14.05.2015 03:18 9,3 C 6,1 C 17,5 C 71 % 1015,0 hPa 0,0 l/m 9,6 km/h (2 Bft) N-NO45 15 0 min 0 lux 0 W/m
14.05.2015 03:23 9,1 C 5,9 C 17,5 C 71 % 1015,0 hPa 0,0 l/m 8,8 km/h (2 Bft) N-NO45 15 0 min 0 lux 0 W/m
14.05.2015 03:28 9,0 C 5,6 C 17,5 C 72 % 1015,0 hPa 0,0 l/m 8,9 km/h (2 Bft) N-NO22.5 20 0 min 0 lux 0 W/m
14.05.2015 03:33 8,8 C 5,4 C 17,5 C 73 % 1015,0 hPa 0,0 l/m 7,9 km/h (2 Bft) N22.5 10 0 min 0 lux 0 W/m
14.05.2015 03:38 8,7 C 5,3 C 17,5 C 74 % 1015,0 hPa 0,0 l/m 7,9 km/h (2 Bft) N22.5 10 0 min 0 lux 0 W/m
14.05.2015 03:42 8,6 C 5,2 C 17,5 C 74 % 1015,0 hPa 0,0 l/m 7,9 km/h (2 Bft) N-NO67.5 20 0 min 0 lux 0 W/m
14.05.2015 03:48 8,5 C 5,1 C 17,5 C 74 % 1015,0 hPa 0,0 l/m 8,6 km/h (2 Bft) N-NO 15 0 min 0 lux 0 W/m
14.05.2015 03:53 8,4 C 4,9 C 17,4 C 75 % 1015,0 hPa 0,0 l/m 7,1 km/h (2 Bft) N22.5 5 0 min 0 lux 0 W/m
14.05.2015 03:58 8,4 C 4,9 C 17,4 C 75 % 1015,0 hPa 0,0 l/m 7,5 km/h (2 Bft) N22.5 5 0 min 0 lux 0 W/m
14.05.2015 04:03 8,3 C 4,7 C 17,4 C 75 % 1015,0 hPa 0,0 l/m 7,5 km/h (2 Bft) N22.5 5 0 min 0 lux 0 W/m
14.05.2015 04:07 8,2 C 4,8 C 17,3 C 75 % 1015,0 hPa 0,0 l/m 8,5 km/h (2 Bft) N22.5 10 0 min 0 lux 0 W/m
14.05.2015 04:13 8,2 C 4,8 C 17,3 C 75 % 1015,0 hPa 0,0 l/m 8,5 km/h (2 Bft) N22.5 10 0 min 0 lux 0 W/m
14.05.2015 04:18 8,2 C 4,8 C 17,3 C 75 % 1015,0 hPa 0,0 l/m 11,6 km/h (2 Bft) N-NO22.5 15 0 min 0 lux 0 W/m
14.05.2015 04:23 8,2 C 4,7 C 17,3 C 75 % 1015,0 hPa 0,0 l/m 12,0 km/h (2 Bft) N22.5 5 0 min 0 lux 0 W/m
14.05.2015 04:28 8,1 C 4,5 C 17,3 C 75 % 1015,0 hPa 0,0 l/m 8,1 km/h (2 Bft) N22.5 360 0 min 0 lux 0 W/m
14.05.2015 04:33 8,0 C 4,4 C 17,3 C 75 % 1015,0 hPa 0,0 l/m 8,2 km/h (2 Bft) N22.5 5 0 min 0 lux 0 W/m
14.05.2015 04:38 8,1 C 4,4 C 17,3 C 75 % 1015,0 hPa 0,0 l/m 8,2 km/h (2 Bft) N22.5 5 0 min 0 lux 0 W/m
14.05.2015 04:43 8,0 C 4,1 C 17,2 C 75 % 1015,0 hPa 0,0 l/m 6,0 km/h (2 Bft) N 5 0 min 0 lux 0 W/m
14.05.2015 04:48 7,9 C 4,0 C 17,2 C 75 % 1015,0 hPa 0,0 l/m 5,9 km/h (2 Bft) N 5 0 min 0 lux 0 W/m
14.05.2015 04:53 7,9 C 4,1 C 17,2 C 76 % 1015,0 hPa 0,0 l/m 7,6 km/h (2 Bft) N 5 0 min 0 lux 0 W/m
14.05.2015 04:58 7,8 C 4,1 C 17,2 C 76 % 1015,0 hPa 0,0 l/m 4,8 km/h (1 Bft) N 5 0 min 0 lux 0 W/m
14.05.2015 05:03 7,8 C 4,1 C 17,2 C 77 % 1015,0 hPa 0,0 l/m 6,8 km/h (2 Bft) N22.5 10 0 min 0 lux 0 W/m
14.05.2015 05:08 7,7 C 3,9 C 17,2 C 76 % 1015,0 hPa 0,0 l/m 5,8 km/h (2 Bft) N22.5 5 0 min 0 lux 0 W/m
14.05.2015 05:13 7,7 C 3,8 C 17,2 C 77 % 1015,0 hPa 0,0 l/m 6,3 km/h (2 Bft) N 10 0 min 0 lux 0 W/m
14.05.2015 05:18 7,6 C 3,7 C 17,2 C 77 % 1015,1 hPa 0,0 l/m 0,8 km/h (0 Bft) N 10 0 min 0 lux 0 W/m
14.05.2015 05:23 7,5 C 3,7 C 17,1 C 77 % 1015,1 hPa 0,0 l/m 4,5 km/h (1 Bft) N 360 0 min 55 lux 0 W/m
14.05.2015 05:28 7,4 C 3,6 C 17,1 C 77 % 1015,1 hPa 0,0 l/m 6,1 km/h (2 Bft) N 360 0 min 76 lux 0 W/m
14.05.2015 05:33 7,5 C 3,5 C 17,1 C 77 % 1015,1 hPa 0,0 l/m 6,1 km/h (2 Bft) N 360 0 min 142 lux 0 W/m
14.05.2015 05:38 7,4 C 3,7 C 17,1 C 78 % 1015,1 hPa 0,0 l/m 2,7 km/h (1 Bft) N22.5 360 0 min 200 klux 0 W/m
14.05.2015 05:43 7,4 C 3,9 C 17,1 C 79 % 1015,1 hPa 0,0 l/m 6,8 km/h (2 Bft) N-NO22.5 15 0 min 384 lux 0 W/m
14.05.2015 05:48 7,4 C 3,8 C 17,1 C 79 % 1015,1 hPa 0,0 l/m 6,7 km/h (2 Bft) N 10 0 min 574 lux 0 W/m
14.05.2015 05:53 7,4 C 3,8 C 17,1 C 79 % 1015,1 hPa 0,0 l/m 6,6 km/h (2 Bft) N-NO 15 0 min 825 lux 6 W/m
14.05.2015 05:58 7,4 C 3,7 C 17,0 C 79 % 1015,1 hPa 0,0 l/m 0,6 km/h (0 Bft) N-NO 25 0 min 1,14 klux 8 W/m
14.05.2015 06:03 7,3 C 3,7 C 17,0 C 78 % 1015,1 hPa 0,0 l/m 5,2 km/h (1 Bft) N-NO 30 0 min 1,48 klux 10 W/m
14.05.2015 06:08 7,3 C 3,7 C 17,0 C 79 % 1015,1 hPa 0,0 l/m 3,3 km/h (1 Bft) N-NO 25 0 min 1,81 klux 12 W/m
14.05.2015 06:13 7,3 C 3,7 C 17,0 C 79 % 1015,1 hPa 0,0 l/m 0,6 km/h (0 Bft) N-NO 25 0 min 2,23 klux 15 W/m
14.05.2015 06:18 7,3 C 3,6 C 16,9 C 79 % 1015,1 hPa 0,0 l/m 0,0 km/h (0 Bft) N-NO 25 0 min 2,62 klux 18 W/m
14.05.2015 06:23 7,2 C 3,6 C 16,9 C 78 % 1015,1 hPa 0,0 l/m 0,0 km/h (0 Bft) N-NO 25 0 min 2,62 klux 18 W/m
14.05.2015 06:28 7,0 C 3,5 C 17,0 C 78 % 1015,1 hPa 0,0 l/m 0,0 km/h (0 Bft) N-NO 25 0 min 2,62 klux 18 W/m
14.05.2015 06:33 6,8 C 3,7 C 17,0 C 78 % 1015,1 hPa 0,0 l/m 5,9 km/h (2 Bft) N-NO 25 0 min 3,37 klux 23 W/m
14.05.2015 06:38 7,1 C 4,0 C 16,9 C 80 % 1015,1 hPa 0,0 l/m 5,7 km/h (2 Bft) NO 40 0 min 3,72 klux 25 W/m
14.05.2015 06:43 7,2 C 4,0 C 16,9 C 81 % 1015,1 hPa 0,0 l/m 4,8 km/h (1 Bft) NO 35 0 min 6,16 klux 42 W/m
14.05.2015 06:48 7,4 C 4,6 C 17,0 C 80 % 1015,1 hPa 0,0 l/m 5,7 km/h (2 Bft) N-NO 25 0 min 9,2 klux 63 W/m
14.05.2015 06:53 7,6 C 5,0 C 16,9 C 79 % 1015,1 hPa 0,0 l/m 5,6 km/h (2 Bft) N-NO22.5 25 5 min 12,8 klux 88 W/m
14.05.2015 06:58 7,6 C 5,5 C 16,8 C 78 % 1015,1 hPa 0,0 l/m 6,8 km/h (2 Bft) N-NO 25 0 min 11,6 klux 79 W/m
14.05.2015 07:03 7,9 C 5,7 C 16,9 C 77 % 1015,0 hPa 0,0 l/m 5,4 km/h (2 Bft) N-NO 25 5 min 15,2 klux 104 W/m
14.05.2015 07:08 8,0 C 5,9 C 16,9 C 76 % 1015,0 hPa 0,0 l/m 3,4 km/h (1 Bft) N-NO 25 5 min 16,6 klux 114 W/m
14.05.2015 07:13 8,0 C 6,0 C 16,9 C 75 % 1015,0 hPa 0,0 l/m 6,7 km/h (2 Bft) NO22.5 35 5 min 17,3 klux 118 W/m
14.05.2015 07:18 8,1 C 6,0 C 16,9 C 75 % 1015,0 hPa 0,0 l/m 6,7 km/h (2 Bft) NO22.5 35 0 min 16,6 klux 114 W/m
14.05.2015 07:23 8,3 C 6,0 C 16,8 C 74 % 1015,0 hPa 0,0 l/m 4,3 km/h (1 Bft) NO 45 5 min 18,3 klux 125 W/m
14.05.2015 07:28 8,4 C 6,1 C 16,8 C 73 % 1015,0 hPa 0,0 l/m 7,0 km/h (2 Bft) NO22.5 40 0 min 14,8 klux 101 W/m
14.05.2015 07:33 8,5 C 6,2 C 16,7 C 73 % 1015,0 hPa 0,0 l/m 5,4 km/h (2 Bft) NO22.5 40 0 min 19,3 klux 132 W/m
14.05.2015 07:38 8,7 C 7,0 C 16,7 C 73 % 1015,0 hPa 0,0 l/m 7,8 km/h (2 Bft) NO22.5 50 5 min 24,3 klux 166 W/m
14.05.2015 07:43 8,9 C 8,0 C 16,7 C 71 % 1015,0 hPa 0,0 l/m 10,7 km/h (2 Bft) NO45 50 5 min 24,4 klux 167 W/m
14.05.2015 07:48 9,1 C 8,4 C 16,7 C 71 % 1015,0 hPa 0,0 l/m 6,3 km/h (2 Bft) NO22.5 45 0 min 17,9 klux 122 W/m
14.05.2015 07:53 9,2 C 8,1 C 16,7 C 70 % 1015,0 hPa 0,0 l/m 12,0 km/h (2 Bft) NO22.5 35 0 min 8,50 klux 58 W/m
14.05.2015 07:58 9,2 C 8,2 C 16,7 C 67 % 1015,0 hPa 0,0 l/m 13,6 km/h (3 Bft) NO67.5 40 0 min 24,9 klux 170 W/m
14.05.2015 08:03 9,2 C 8,7 C 16,7 C 67 % 1015,0 hPa 0,0 l/m 13,3 km/h (3 Bft) NO22.5 45 0 min 19,4 klux 133 W/m
14.05.2015 08:08 9,4 C 9,7 C 16,6 C 66 % 1015,0 hPa 0,0 l/m 11,5 km/h (2 Bft) NO45 40 0 min 19,4 klux 133 W/m
14.05.2015 08:13 9,5 C 10,7 C 16,6 C 65 % 1015,0 hPa 0,0 l/m 10,4 km/h (2 Bft) N-NO22.5 25 5 min 32,3 klux 221 W/m
14.05.2015 08:18 9,7 C 12,1 C 16,6 C 65 % 1015,0 hPa 0,0 l/m 15,6 km/h (3 Bft) NO67.5 40 0 min 12,3 klux 84 W/m
14.05.2015 08:23 9,8 C 12,4 C 16,5 C 65 % 1015,0 hPa 0,0 l/m 16,5 km/h (3 Bft) NO22.5 45 0 min 10,8 klux 74 W/m
14.05.2015 08:28 9,8 C 12,2 C 16,5 C 65 % 1015,0 hPa 0,0 l/m 12,1 km/h (2 Bft) NO45 50 0 min 10,8 klux 74 W/m
14.05.2015 08:33 10,0 C 13,1 C 16,5 C 64 % 1015,0 hPa 0,0 l/m 14,7 km/h (3 Bft) NO22.5 45 5 min 38,0 klux 260 W/m
14.05.2015 08:38 10,0 C 14,5 C 16,4 C 64 % 1015,0 hPa 0,0 l/m 13,3 km/h (3 Bft) O-NO45 60 0 min 11,8 klux 81 W/m
14.05.2015 08:43 10,2 C 15,3 C 16,4 C 62 % 1015,0 hPa 0,0 l/m 16,3 km/h (3 Bft) N-NO45 30 5 min 41,0 klux 280 W/m
14.05.2015 08:48 10,0 C 15,1 C 16,3 C 63 % 1015,0 hPa 0,0 l/m 14,9 km/h (3 Bft) NO22.5 45 0 min 13,6 klux 93 W/m
14.05.2015 08:53 10,0 C 14,4 C 16,3 C 63 % 1015,0 hPa 0,0 l/m 14,1 km/h (3 Bft) N-NO45 30 0 min 15,4 klux 105 W/m
14.05.2015 08:58 9,9 C 13,1 C 16,3 C 64 % 1015,0 hPa 0,0 l/m 9,3 km/h (2 Bft) NO22.5 35 0 min 15,4 klux 105 W/m
14.05.2015 09:03 9,7 C 11,9 C 16,2 C 64 % 1015,0 hPa 0,0 l/m 9,6 km/h (2 Bft) N-NO22.5 15 0 min 12,7 klux 87 W/m
14.05.2015 09:08 9,6 C 11,2 C 16,2 C 64 % 1015,0 hPa 0,0 l/m 8,1 km/h (2 Bft) N 350 0 min 12,3 klux 84 W/m
14.05.2015 09:13 9,6 C 11,0 C 16,1 C 64 % 1015,0 hPa 0,0 l/m 14,1 km/h (3 Bft) N22.5 360 0 min 14,3 klux 98 W/m
14.05.2015 09:18 9,7 C 11,5 C 16,0 C 64 % 1015,0 hPa 0,0 l/m 9,2 km/h (2 Bft) N-NO22.5 20 0 min 18,1 klux 124 W/m
14.05.2015 09:23 9,8 C 12,1 C 16,0 C 64 % 1015,0 hPa 0,0 l/m 10,2 km/h (2 Bft) N-NO22.5 30 0 min 36,7 klux 251 W/m
14.05.2015 09:28 10,0 C 15,2 C 16,0 C 64 % 1015,0 hPa 0,0 l/m 9,2 km/h (2 Bft) N22.5 360 5 min 47,9 klux 328 W/m
14.05.2015 09:33 10,3 C 16,6 C 15,9 C 63 % 1015,0 hPa 0,0 l/m 6,2 km/h (2 Bft) N-NW 345 0 min 28,2 klux 193 W/m
14.05.2015 09:38 10,5 C 19,1 C 15,9 C 63 % 1015,0 hPa 0,0 l/m 0,7 km/h (0 Bft) N-NW 345 5 min 200 klux 1368 W/m
14.05.2015 09:43 10,7 C 22,3 C 15,9 C 62 % 1015,0 hPa 0,0 l/m 9,3 km/h (2 Bft) N-NO22.5 15 5 min 53,8 klux 368 W/m
14.05.2015 09:48 11,2 C 22,9 C 15,9 C 61 % 1015,0 hPa 0,0 l/m 10,7 km/h (2 Bft) N-NO45 20 5 min 55,2 klux 378 W/m
14.05.2015 09:53 11,3 C 25,0 C 15,9 C 59 % 1015,0 hPa 0,0 l/m 12,5 km/h (2 Bft) N-NO22.5 30 5 min 54,5 klux 373 W/m
14.05.2015 09:58 11,5 C 28,4 C 15,9 C 60 % 1015,0 hPa 0,0 l/m 0,9 km/h (0 Bft) N-NW 340 5 min 56,3 klux 385 W/m
14.05.2015 10:03 11,5 C 29,1 C 15,8 C 60 % 1015,0 hPa 0,0 l/m 9,5 km/h (2 Bft) N-NO22.5 20 5 min 56,2 klux 384 W/m
14.05.2015 10:08 11,9 C 28,2 C 15,8 C 58 % 1015,0 hPa 0,0 l/m 10,5 km/h (2 Bft) N45 360 5 min 56,2 klux 384 W/m
14.05.2015 10:13 12,3 C 28,2 C 15,8 C 58 % 1015,0 hPa 0,0 l/m 8,6 km/h (2 Bft) N22.5 355 5 min 57,7 klux 395 W/m
14.05.2015 10:18 12,4 C 30,1 C 15,8 C 57 % 1015,0 hPa 0,0 l/m 9,1 km/h (2 Bft) N-NO45 30 5 min 56,3 klux 385 W/m
14.05.2015 10:23 12,4 C 29,3 C 15,8 C 57 % 1015,0 hPa 0,0 l/m 14,0 km/h (3 Bft) N-NW67.5 345 5 min 60,9 klux 417 W/m
14.05.2015 10:28 12,6 C 30,0 C 15,8 C 56 % 1015,0 hPa 0,0 l/m 14,0 km/h (3 Bft) N-NW67.5 345 5 min 60,9 klux 417 W/m
14.05.2015 10:33 12,6 C 31,7 C 15,8 C 56 % 1015,0 hPa 0,0 l/m 10,5 km/h (2 Bft) NO45 45 5 min 59,8 klux 409 W/m
14.05.2015 10:38 12,6 C 30,3 C 15,8 C 56 % 1015,0 hPa 0,0 l/m 11,4 km/h (2 Bft) N67.5 10 5 min 58,5 klux 400 W/m
14.05.2015 10:43 12,6 C 29,7 C 15,9 C 55 % 1014,0 hPa 0,0 l/m 9,2 km/h (2 Bft) N22.5 355 5 min 58,5 klux 400 W/m
14.05.2015 10:48 12,6 C 30,7 C 15,9 C 56 % 1014,0 hPa 0,0 l/m 8,5 km/h (2 Bft) NO22.5 35 5 min 59,9 klux 410 W/m
14.05.2015 10:53 13,1 C 32,5 C 15,9 C 53 % 1013,9 hPa 0,0 l/m 14,0 km/h (3 Bft) NO67.5 55 5 min 61,8 klux 423 W/m
14.05.2015 10:58 12,9 C 32,1 C 15,8 C 53 % 1014,0 hPa 0,0 l/m 12,7 km/h (3 Bft) N22.5 360 5 min 200 klux 1368 W/m
14.05.2015 11:03 12,9 C 33,4 C 15,9 C 53 % 1014,0 hPa 0,0 l/m 6,0 km/h (2 Bft) N-NO45 15 5 min 66,8 klux 457 W/m
14.05.2015 11:08 13,2 C 34,5 C 15,9 C 54 % 1013,9 hPa 0,0 l/m 1,6 km/h (1 Bft) N-NO22.5 15 5 min 66,9 klux 458 W/m
14.05.2015 11:13 13,5 C 33,2 C 15,9 C 52 % 1013,9 hPa 0,0 l/m 15,5 km/h (3 Bft) N-NO22.5 25 5 min 68,1 klux 466 W/m
14.05.2015 11:18 13,7 C 34,9 C 15,9 C 52 % 1013,9 hPa 0,0 l/m 8,8 km/h (2 Bft) NO67.5 35 5 min 67,7 klux 463 W/m
14.05.2015 11:23 13,7 C 33,5 C 15,9 C 52 % 1013,9 hPa 0,0 l/m 18,1 km/h (3 Bft) N-NO45 20 5 min 69,0 klux 472 W/m
14.05.2015 11:28 13,6 C 34,0 C 15,9 C 52 % 1013,9 hPa 0,0 l/m 9,2 km/h (2 Bft) N22.5 5 5 min 69,3 klux 474 W/m
14.05.2015 11:33 13,6 C 35,1 C 15,9 C 51 % 1013,9 hPa 0,0 l/m 6,3 km/h (2 Bft) N-NW45 345 5 min 71,0 klux 486 W/m
14.05.2015 11:38 13,8 C 36,1 C 15,9 C 54 % 1013,9 hPa 0,0 l/m 7,0 km/h (2 Bft) N-NW67.5 330 5 min 69,4 klux 475 W/m
14.05.2015 11:43 13,7 C 36,1 C 15,9 C 52 % 1013,9 hPa 0,0 l/m 15,1 km/h (3 Bft) NW45 315 5 min 71,4 klux 488 W/m
14.05.2015 11:48 13,9 C 34,4 C 15,9 C 52 % 1013,9 hPa 0,0 l/m 12,3 km/h (2 Bft) W45 275 5 min 72,6 klux 497 W/m
14.05.2015 11:52 14,0 C 35,2 C 15,9 C 52 % 1013,9 hPa 0,0 l/m 9,4 km/h (2 Bft) N-NW22.5 340 4 min 70,8 klux 484 W/m
14.05.2015 11:58 14,1 C 34,0 C 15,9 C 51 % 1013,9 hPa 0,0 l/m 10,6 km/h (2 Bft) N-NW22.5 345 6 min 66,7 klux 456 W/m
14.05.2015 12:03 14,0 C 35,1 C 15,9 C 51 % 1013,9 hPa 0,0 l/m 14,1 km/h (3 Bft) NW67.5 310 5 min 63,8 klux 436 W/m
14.05.2015 12:08 14,5 C 36,5 C 15,9 C 52 % 1013,9 hPa 0,0 l/m 8,9 km/h (2 Bft) N45 360 5 min 74,3 klux 508 W/m
14.05.2015 12:13 14,7 C 36,6 C 15,9 C 49 % 1013,9 hPa 0,0 l/m 9,3 km/h (2 Bft) N-NW45 335 5 min 74,9 klux 512 W/m
14.05.2015 12:18 14,2 C 37,4 C 15,9 C 50 % 1013,9 hPa 0,0 l/m 10,1 km/h (2 Bft) W-NW45 295 5 min 74,6 klux 510 W/m
14.05.2015 12:23 14,2 C 36,5 C 15,9 C 50 % 1013,9 hPa 0,0 l/m 11,6 km/h (2 Bft) N-NW45 335 5 min 74,6 klux 510 W/m
14.05.2015 12:28 15,0 C 39,0 C 16,0 C 50 % 1013,9 hPa 0,0 l/m 14,7 km/h (3 Bft) O-NO67.5 65 5 min 75,3 klux 515 W/m
14.05.2015 12:33 16,0 C 39,6 C 16,0 C 46 % 1013,9 hPa 0,0 l/m 17,1 km/h (3 Bft) NO67.5 55 5 min 75,7 klux 518 W/m
14.05.2015 12:38 15,5 C 37,9 C 16,0 C 48 % 1013,9 hPa 0,0 l/m 14,6 km/h (3 Bft) N67.5 360 5 min 75,7 klux 518 W/m
14.05.2015 12:43 15,4 C 38,0 C 16,0 C 47 % 1013,9 hPa 0,0 l/m 15,5 km/h (3 Bft) N45 360 5 min 77,1 klux 527 W/m
14.05.2015 12:48 15,2 C 37,4 C 16,0 C 47 % 1013,9 hPa 0,0 l/m 11,4 km/h (2 Bft) N22.5 350 5 min 77,1 klux 527 W/m
14.05.2015 12:53 15,6 C 38,3 C 16,0 C 49 % 1012,9 hPa 0,0 l/m 14,5 km/h (3 Bft) NO45 35 5 min 77,4 klux 529 W/m
14.05.2015 12:58 16,0 C 39,4 C 16,0 C 45 % 1012,9 hPa 0,0 l/m 16,9 km/h (3 Bft) O-NO22.5 65 5 min 77,4 klux 529 W/m
14.05.2015 13:03 16,4 C 42,1 C 16,1 C 45 % 1012,9 hPa 0,0 l/m 12,5 km/h (2 Bft) NO67.5 35 5 min 78,1 klux 534 W/m
14.05.2015 13:08 17,1 C 42,6 C 16,1 C 44 % 1012,9 hPa 0,0 l/m 12,5 km/h (2 Bft) NO67.5 35 5 min 78,9 klux 540 W/m
14.05.2015 13:13 17,2 C 42,9 C 16,1 C 42 % 1012,9 hPa 0,0 l/m 16,9 km/h (3 Bft) NO45 40 5 min 80,3 klux 549 W/m
14.05.2015 13:18 17,0 C 42,0 C 16,1 C 41 % 1012,9 hPa 0,0 l/m 13,4 km/h (3 Bft) N-NO45 25 5 min 79,9 klux 547 W/m
14.05.2015 13:23 16,8 C 40,5 C 16,2 C 43 % 1012,9 hPa 0,0 l/m 19,6 km/h (3 Bft) N-NO22.5 15 5 min 77,3 klux 529 W/m
14.05.2015 13:28 16,5 C 37,5 C 16,2 C 45 % 1012,9 hPa 0,0 l/m 14,3 km/h (3 Bft) NO45 40 0 min 63,5 klux 434 W/m
14.05.2015 13:33 16,7 C 38,2 C 16,2 C 46 % 1012,9 hPa 0,0 l/m 11,5 km/h (2 Bft) N-NO45 25 0 min 41,2 klux 282 W/m
14.05.2015 13:38 17,2 C 38,2 C 16,2 C 41 % 1012,9 hPa 0,0 l/m 13,9 km/h (3 Bft) N-NO22.5 15 5 min 77,8 klux 532 W/m
14.05.2015 13:43 16,8 C 37,2 C 16,3 C 42 % 1012,9 hPa 0,0 l/m 17,9 km/h (3 Bft) NO45 50 5 min 76,2 klux 521 W/m
14.05.2015 13:48 16,8 C 38,6 C 16,3 C 42 % 1012,9 hPa 0,0 l/m 15,7 km/h (3 Bft) N22.5 355 5 min 80,2 klux 549 W/m
14.05.2015 13:53 16,8 C 42,0 C 16,3 C 44 % 1011,9 hPa 0,0 l/m 18,3 km/h (3 Bft) N-NO45 30 5 min 85,0 klux 581 W/m
14.05.2015 13:58 17,8 C 43,3 C 16,3 C 43 % 1011,9 hPa 0,0 l/m 13,4 km/h (3 Bft) N45 10 5 min 84,9 klux 581 W/m
14.05.2015 14:03 17,6 C 40,4 C 16,4 C 41 % 1011,9 hPa 0,0 l/m 19,6 km/h (3 Bft) N-NO45 25 5 min 66,6 klux 456 W/m
14.05.2015 14:08 17,6 C 36,6 C 16,4 C 40 % 1011,9 hPa 0,0 l/m 21,8 km/h (4 Bft) O45 80 0 min 51,0 klux 349 W/m
14.05.2015 14:13 17,6 C 35,9 C 16,4 C 41 % 1011,9 hPa 0,0 l/m 9,6 km/h (2 Bft) O-NO22.5 65 0 min 51,0 klux 349 W/m
14.05.2015 14:18 17,6 C 32,7 C 16,4 C 41 % 1011,9 hPa 0,0 l/m 13,5 km/h (3 Bft) NO67.5 55 0 min 29,3 klux 200 W/m
14.05.2015 14:23 17,1 C 30,7 C 16,4 C 42 % 1011,9 hPa 0,0 l/m 11,5 km/h (2 Bft) NO22.5 35 0 min 47,7 klux 326 W/m
14.05.2015 14:28 17,2 C 30,5 C 16,4 C 41 % 1011,9 hPa 0,0 l/m 13,1 km/h (3 Bft) NO45 55 0 min 53,5 klux 366 W/m
14.05.2015 14:33 17,3 C 33,1 C 16,5 C 43 % 1011,9 hPa 0,0 l/m 8,1 km/h (2 Bft) NO22.5 50 0 min 47,2 klux 323 W/m
14.05.2015 14:38 17,6 C 35,2 C 16,5 C 43 % 1011,9 hPa 0,0 l/m 16,6 km/h (3 Bft) O-SO67.5 115 0 min 47,2 klux 323 W/m
14.05.2015 14:43 17,9 C 40,2 C 16,5 C 39 % 1011,9 hPa 0,0 l/m 8,9 km/h (2 Bft) S-SO67.5 160 5 min 78,4 klux 536 W/m
14.05.2015 14:48 18,0 C 41,5 C 16,5 C 38 % 1011,9 hPa 0,0 l/m 10,6 km/h (2 Bft) SO67.5 130 5 min 68,6 klux 469 W/m
14.05.2015 14:53 18,5 C 42,4 C 16,6 C 38 % 1011,8 hPa 0,0 l/m 11,8 km/h (2 Bft) O-SO22.5 110 5 min 80,7 klux 552 W/m
14.05.2015 14:58 18,4 C 44,1 C 16,6 C 38 % 1011,8 hPa 0,0 l/m 12,5 km/h (2 Bft) O-SO67.5 115 5 min 78,4 klux 536 W/m
14.05.2015 15:03 18,9 C 44,1 C 16,7 C 38 % 1011,8 hPa 0,0 l/m 12,3 km/h (2 Bft) S22.5 170 5 min 74,7 klux 511 W/m
14.05.2015 15:08 18,8 C 45,0 C 16,7 C 39 % 1011,8 hPa 0,0 l/m 15,5 km/h (3 Bft) S-SO45 150 5 min 68,1 klux 466 W/m
14.05.2015 15:13 18,6 C 44,0 C 16,7 C 38 % 1011,8 hPa 0,0 l/m 8,1 km/h (2 Bft) O-SO67.5 105 5 min 68,1 klux 466 W/m
14.05.2015 15:18 19,0 C 45,4 C 16,8 C 36 % 1011,8 hPa 0,0 l/m 11,6 km/h (2 Bft) S-SO67.5 155 5 min 72,7 klux 497 W/m
14.05.2015 15:23 19,3 C 45,2 C 16,9 C 38 % 1010,8 hPa 0,0 l/m 10,0 km/h (2 Bft) O-SO67.5 120 5 min 74,4 klux 509 W/m
14.05.2015 15:28 19,5 C 45,2 C 16,9 C 36 % 1010,8 hPa 0,0 l/m 14,0 km/h (3 Bft) O45 85 5 min 71,9 klux 492 W/m
14.05.2015 15:33 19,3 C 44,9 C 17,0 C 36 % 1010,8 hPa 0,0 l/m 12,6 km/h (3 Bft) O-SO45 105 5 min 72,1 klux 493 W/m
14.05.2015 15:38 19,4 C 45,6 C 17,0 C 36 % 1010,8 hPa 0,0 l/m 8,9 km/h (2 Bft) SO22.5 140 5 min 72,3 klux 495 W/m
14.05.2015 15:43 19,6 C 45,9 C 17,0 C 34 % 1010,8 hPa 0,0 l/m 17,9 km/h (3 Bft) SO67.5 125 5 min 73,0 klux 499 W/m
14.05.2015 15:48 19,9 C 46,1 C 17,0 C 37 % 1010,8 hPa 0,0 l/m 9,9 km/h (2 Bft) S 170 5 min 65,2 klux 446 W/m
14.05.2015 15:53 19,8 C 45,1 C 17,1 C 36 % 1010,8 hPa 0,0 l/m 20,2 km/h (4 Bft) O-SO67.5 120 5 min 66,6 klux 456 W/m
14.05.2015 15:58 19,8 C 40,5 C 17,2 C 36 % 1010,8 hPa 0,0 l/m 15,0 km/h (3 Bft) NO45 45 0 min 39,2 klux 268 W/m
14.05.2015 16:03 19,5 C 39,5 C 17,2 C 34 % 1010,8 hPa 0,0 l/m 13,6 km/h (3 Bft) O67.5 90 5 min 63,8 klux 436 W/m
14.05.2015 16:08 19,5 C 39,8 C 17,2 C 36 % 1010,8 hPa 0,0 l/m 12,0 km/h (2 Bft) O-SO45 105 5 min 61,3 klux 419 W/m
14.05.2015 16:13 19,6 C 38,3 C 17,2 C 35 % 1010,8 hPa 0,0 l/m 10,5 km/h (2 Bft) NO45 50 5 min 57,1 klux 391 W/m
14.05.2015 16:18 19,3 C 37,5 C 17,2 C 34 % 1010,8 hPa 0,0 l/m 17,6 km/h (3 Bft) O67.5 95 0 min 40,0 klux 274 W/m
14.05.2015 16:23 18,7 C 31,7 C 17,2 C 34 % 1009,8 hPa 0,0 l/m 10,8 km/h (2 Bft) O22.5 100 0 min 22,9 klux 157 W/m
14.05.2015 16:28 18,5 C 29,4 C 17,2 C 38 % 1009,8 hPa 0,0 l/m 17,3 km/h (3 Bft) NO45 45 0 min 29,3 klux 200 W/m
14.05.2015 16:33 18,4 C 28,8 C 17,2 C 38 % 1009,8 hPa 0,0 l/m 15,5 km/h (3 Bft) O-SO45 105 0 min 38,2 klux 261 W/m
14.05.2015 16:38 18,7 C 31,0 C 17,2 C 39 % 1009,8 hPa 0,0 l/m 8,7 km/h (2 Bft) O45 100 5 min 67,6 klux 462 W/m
14.05.2015 16:43 18,7 C 33,7 C 17,2 C 39 % 1009,8 hPa 0,0 l/m 7,5 km/h (2 Bft) SO67.5 130 5 min 61,2 klux 419 W/m
14.05.2015 16:48 19,3 C 35,6 C 17,2 C 37 % 1009,8 hPa 0,0 l/m 21,3 km/h (4 Bft) O22.5 80 5 min 58,7 klux 402 W/m
14.05.2015 16:53 19,4 C 37,3 C 17,2 C 36 % 1009,8 hPa 0,0 l/m 12,4 km/h (2 Bft) S-SO67.5 155 5 min 53,2 klux 364 W/m
14.05.2015 16:58 19,3 C 37,5 C 17,3 C 36 % 1009,8 hPa 0,0 l/m 13,3 km/h (3 Bft) O-SO67.5 115 5 min 60,1 klux 411 W/m
14.05.2015 17:03 19,3 C 38,3 C 17,3 C 37 % 1009,8 hPa 0,0 l/m 13,0 km/h (3 Bft) O-SO45 115 5 min 60,9 klux 417 W/m
14.05.2015 17:08 19,7 C 38,6 C 17,3 C 37 % 1009,8 hPa 0,0 l/m 14,1 km/h (3 Bft) O-SO45 105 5 min 57,9 klux 396 W/m
14.05.2015 17:13 19,8 C 35,7 C 17,3 C 36 % 1009,8 hPa 0,0 l/m 14,9 km/h (3 Bft) NO67.5 55 5 min 48,9 klux 334 W/m
14.05.2015 17:18 20,0 C 36,4 C 17,4 C 37 % 1009,8 hPa 0,0 l/m 16,9 km/h (3 Bft) O22.5 80 5 min 52,1 klux 356 W/m
14.05.2015 17:23 19,7 C 36,2 C 17,4 C 36 % 1008,8 hPa 0,0 l/m 10,6 km/h (2 Bft) O-SO67.5 110 5 min 52,8 klux 361 W/m
14.05.2015 17:28 19,4 C 35,1 C 17,4 C 36 % 1008,8 hPa 0,0 l/m 18,5 km/h (3 Bft) O67.5 95 0 min 42,3 klux 289 W/m
14.05.2015 17:33 19,5 C 34,3 C 17,4 C 37 % 1008,8 hPa 0,0 l/m 10,0 km/h (2 Bft) O-NO67.5 60 0 min 40,9 klux 280 W/m
14.05.2015 17:38 19,4 C 33,3 C 17,5 C 38 % 1008,8 hPa 0,0 l/m 15,4 km/h (3 Bft) O-NO22.5 70 0 min 40,8 klux 279 W/m
14.05.2015 17:43 19,3 C 31,4 C 17,5 C 37 % 1008,8 hPa 0,0 l/m 12,5 km/h (2 Bft) O-NO45 70 0 min 30,0 klux 205 W/m
14.05.2015 17:48 19,0 C 30,4 C 17,5 C 38 % 1008,8 hPa 0,0 l/m 19,5 km/h (3 Bft) O67.5 85 0 min 26,2 klux 179 W/m
14.05.2015 17:53 18,8 C 28,2 C 17,5 C 38 % 1008,8 hPa 0,0 l/m 12,6 km/h (3 Bft) O-NO45 75 0 min 24,4 klux 167 W/m
14.05.2015 17:58 18,9 C 27,2 C 17,5 C 39 % 1008,8 hPa 0,0 l/m 9,8 km/h (2 Bft) NO22.5 40 0 min 25,7 klux 176 W/m
14.05.2015 18:03 18,8 C 26,9 C 17,5 C 39 % 1008,8 hPa 0,0 l/m 8,3 km/h (2 Bft) O-NO45 70 0 min 24,3 klux 166 W/m
14.05.2015 18:08 18,7 C 26,5 C 17,5 C 39 % 1008,8 hPa 0,0 l/m 11,6 km/h (2 Bft) O-SO67.5 115 0 min 23,7 klux 162 W/m
14.05.2015 18:13 18,8 C 25,9 C 17,5 C 39 % 1008,8 hPa 0,0 l/m 11,3 km/h (2 Bft) O45 80 0 min 23,1 klux 158 W/m
14.05.2015 18:18 18,7 C 25,1 C 17,5 C 40 % 1008,8 hPa 0,0 l/m 10,9 km/h (2 Bft) O22.5 95 0 min 20,5 klux 140 W/m
14.05.2015 18:23 18,4 C 24,8 C 17,5 C 40 % 1008,8 hPa 0,0 l/m 9,2 km/h (2 Bft) O22.5 95 0 min 17,5 klux 120 W/m
14.05.2015 18:28 18,4 C 23,6 C 17,4 C 40 % 1008,8 hPa 0,0 l/m 11,8 km/h (2 Bft) O22.5 85 0 min 15,4 klux 105 W/m
14.05.2015 18:33 18,2 C 22,8 C 17,4 C 40 % 1008,8 hPa 0,0 l/m 13,8 km/h (3 Bft) O-SO22.5 105 0 min 13,9 klux 95 W/m
14.05.2015 18:38 18,0 C 22,2 C 17,5 C 41 % 1008,8 hPa 0,0 l/m 14,2 km/h (3 Bft) O45 95 0 min 12,0 klux 82 W/m
14.05.2015 18:43 18,0 C 21,4 C 17,5 C 41 % 1008,8 hPa 0,0 l/m 7,9 km/h (2 Bft) O22.5 100 0 min 11,6 klux 79 W/m
14.05.2015 18:48 18,0 C 21,0 C 17,5 C 41 % 1008,8 hPa 0,0 l/m 4,3 km/h (1 Bft) O 100 0 min 10,9 klux 75 W/m
14.05.2015 18:53 18,0 C 20,7 C 17,4 C 42 % 1008,8 hPa 0,0 l/m 6,9 km/h (2 Bft) O22.5 100 0 min 9,7 klux 66 W/m
14.05.2015 18:58 17,9 C 20,6 C 17,5 C 43 % 1008,8 hPa 0,0 l/m 9,6 km/h (2 Bft) O22.5 100 0 min 9,5 klux 65 W/m
14.05.2015 19:03 17,8 C 20,3 C 17,5 C 43 % 1008,8 hPa 0,0 l/m 7,7 km/h (2 Bft) O 100 0 min 9,2 klux 63 W/m
14.05.2015 19:08 17,8 C 20,1 C 17,4 C 43 % 1008,8 hPa 0,0 l/m 8,5 km/h (2 Bft) O45 95 0 min 9,3 klux 64 W/m
14.05.2015 19:13 17,8 C 20,0 C 17,4 C 43 % 1008,8 hPa 0,0 l/m 4,4 km/h (1 Bft) O-SO 105 0 min 8,77 klux 60 W/m
14.05.2015 19:18 17,8 C 19,6 C 17,4 C 43 % 1008,8 hPa 0,0 l/m 9,8 km/h (2 Bft) O22.5 90 0 min 7,94 klux 54 W/m
14.05.2015 19:23 17,7 C 19,4 C 17,4 C 43 % 1008,8 hPa 0,0 l/m 2,9 km/h (1 Bft) O22.5 100 0 min 6,86 klux 47 W/m
14.05.2015 19:28 17,8 C 19,2 C 17,4 C 44 % 1008,8 hPa 0,0 l/m 9,0 km/h (2 Bft) NO45 55 0 min 6,86 klux 47 W/m
14.05.2015 19:33 17,7 C 18,8 C 17,4 C 43 % 1008,8 hPa 0,0 l/m 10,6 km/h (2 Bft) O-NO22.5 75 0 min 6,86 klux 47 W/m
14.05.2015 19:38 17,7 C 18,3 C 17,4 C 43 % 1008,8 hPa 0,0 l/m 15,3 km/h (3 Bft) NO45 50 0 min 5,53 klux 38 W/m
14.05.2015 19:43 17,5 C 17,8 C 17,4 C 44 % 1008,8 hPa 0,0 l/m 19,8 km/h (3 Bft) NO45 50 0 min 4,93 klux 34 W/m
14.05.2015 19:48 17,5 C 17,7 C 17,4 C 45 % 1008,8 hPa 0,0 l/m 11,9 km/h (2 Bft) NO22.5 45 0 min 4,25 klux 29 W/m
14.05.2015 19:53 17,3 C 17,2 C 17,4 C 45 % 1009,9 hPa 0,0 l/m 22,2 km/h (4 Bft) NO22.5 55 0 min 3,93 klux 27 W/m
14.05.2015 19:58 17,0 C 16,9 C 17,4 C 47 % 1009,9 hPa 0,0 l/m 22,0 km/h (4 Bft) O-NO22.5 70 0 min 3,46 klux 24 W/m
14.05.2015 20:03 16,8 C 16,8 C 17,4 C 47 % 1009,9 hPa 0,0 l/m 17,0 km/h (3 Bft) O-NO45 70 0 min 2,53 klux 17 W/m
14.05.2015 20:08 16,8 C 16,5 C 17,3 C 47 % 1009,9 hPa 0,0 l/m 15,7 km/h (3 Bft) O-NO67.5 60 0 min 2,25 klux 15 W/m
14.05.2015 20:13 16,7 C 16,3 C 17,3 C 47 % 1009,9 hPa 0,0 l/m 13,5 km/h (3 Bft) NO22.5 55 0 min 1,89 klux 13 W/m
14.05.2015 20:18 16,6 C 16,1 C 17,3 C 47 % 1009,9 hPa 0,0 l/m 17,0 km/h (3 Bft) NO22.5 55 0 min 1,64 klux 11 W/m
14.05.2015 20:23 16,5 C 15,9 C 17,3 C 47 % 1009,9 hPa 0,0 l/m 15,0 km/h (3 Bft) NO22.5 50 0 min 1,57 klux 11 W/m
14.05.2015 20:28 16,5 C 15,8 C 17,3 C 48 % 1009,9 hPa 0,0 l/m 16,9 km/h (3 Bft) O-NO45 70 0 min 1,54 klux 11 W/m
14.05.2015 20:33 16,4 C 15,5 C 17,3 C 48 % 1009,9 hPa 0,0 l/m 14,3 km/h (3 Bft) O-NO45 75 0 min 1,40 klux 10 W/m
14.05.2015 20:38 16,3 C 15,3 C 17,3 C 49 % 1009,9 hPa 0,0 l/m 15,0 km/h (3 Bft) O-NO45 60 0 min 1,12 klux 8 W/m
14.05.2015 20:43 16,3 C 15,1 C 17,3 C 49 % 1009,9 hPa 0,0 l/m 11,1 km/h (2 Bft) NO22.5 45 0 min 732 lux 5 W/m
14.05.2015 20:48 16,1 C 14,9 C 17,3 C 49 % 1009,9 hPa 0,0 l/m 11,1 km/h (2 Bft) O22.5 85 0 min 500 lux 3 W/m
14.05.2015 20:53 16,1 C 14,8 C 17,3 C 49 % 1009,9 hPa 0,0 l/m 15,7 km/h (3 Bft) O22.5 90 0 min 432 lux 3 W/m
14.05.2015 20:58 16,0 C 14,6 C 17,3 C 49 % 1009,9 hPa 0,0 l/m 13,8 km/h (3 Bft) O22.5 95 0 min 377 lux 3 W/m
14.05.2015 21:03 15,9 C 14,3 C 17,3 C 49 % 1009,9 hPa 0,0 l/m 14,4 km/h (3 Bft) O-NO45 60 0 min 321 lux 2 W/m
14.05.2015 21:08 15,8 C 14,2 C 17,3 C 49 % 1009,9 hPa 0,0 l/m 5,6 km/h (2 Bft) O-NO45 70 0 min 267 lux 2 W/m
14.05.2015 21:13 15,8 C 14,0 C 17,3 C 49 % 1009,9 hPa 0,0 l/m 10,0 km/h (2 Bft) O-NO22.5 60 0 min 201 lux 0 W/m
14.05.2015 21:18 15,8 C 13,9 C 17,3 C 50 % 1009,9 hPa 0,0 l/m 15,7 km/h (3 Bft) O22.5 85 0 min 172 lux 0 W/m
14.05.2015 21:23 15,7 C 13,8 C 17,2 C 50 % 1009,9 hPa 0,0 l/m 14,0 km/h (3 Bft) O45 80 0 min 120 lux 0 W/m
14.05.2015 21:28 15,7 C 13,9 C 17,3 C 50 % 1009,9 hPa 0,0 l/m 12,0 km/h (2 Bft) O-NO45 70 0 min 72 lux 0 W/m
14.05.2015 21:33 15,6 C 13,9 C 17,2 C 50 % 1009,9 hPa 0,0 l/m 13,1 km/h (3 Bft) O-NO22.5 60 0 min 41 lux 0 W/m
14.05.2015 21:38 15,6 C 13,9 C 17,2 C 50 % 1009,9 hPa 0,0 l/m 11,0 km/h (2 Bft) O-NO22.5 65 0 min 20 lux 0 W/m
14.05.2015 21:42 15,6 C 13,8 C 17,2 C 51 % 1009,9 hPa 0,0 l/m 14,4 km/h (3 Bft) NO22.5 40 0 min 9 lux 0 W/m
14.05.2015 21:48 15,5 C 13,8 C 17,2 C 51 % 1009,9 hPa 0,0 l/m 17,0 km/h (3 Bft) NO45 50 0 min 5 lux 0 W/m
14.05.2015 21:53 15,4 C 13,6 C 17,2 C 52 % 1009,9 hPa 0,0 l/m 15,9 km/h (3 Bft) NO22.5 50 0 min 1 lux 0 W/m
14.05.2015 21:58 15,2 C 13,5 C 17,2 C 53 % 1009,9 hPa 0,0 l/m 18,5 km/h (3 Bft) O-NO67.5 60 0 min 0 lux 0 W/m
14.05.2015 22:03 15,2 C 13,5 C 17,2 C 53 % 1009,9 hPa 0,0 l/m 18,5 km/h (3 Bft) O-NO67.5 60 0 min 0 lux 0 W/m
14.05.2015 22:07 15,2 C 13,6 C 17,2 C 53 % 1009,9 hPa 0,0 l/m 29,8 km/h (5 Bft) O-NO45 60 0 min 0 lux 0 W/m
14.05.2015 22:13 15,2 C 13,8 C 17,2 C 51 % 1009,9 hPa 0,0 l/m 27,7 km/h (5 Bft) O-NO45 70 0 min 0 lux 0 W/m
14.05.2015 22:18 15,2 C 13,7 C 17,2 C 52 % 1009,9 hPa 0,0 l/m 19,1 km/h (3 Bft) O67.5 80 0 min 0 lux 0 W/m
14.05.2015 22:23 15,2 C 13,8 C 17,1 C 52 % 1009,9 hPa 0,0 l/m 26,1 km/h (4 Bft) NO45 45 0 min 0 lux 0 W/m
14.05.2015 22:28 15,1 C 13,7 C 17,1 C 51 % 1009,9 hPa 0,0 l/m 16,3 km/h (3 Bft) O-NO45 70 0 min 0 lux 0 W/m
14.05.2015 22:33 15,1 C 13,8 C 17,2 C 52 % 1009,9 hPa 0,0 l/m 16,8 km/h (3 Bft) O-NO45 60 0 min 0 lux 0 W/m
14.05.2015 22:38 15,0 C 13,6 C 17,1 C 52 % 1009,9 hPa 0,0 l/m 17,1 km/h (3 Bft) O-NO45 70 0 min 0 lux 0 W/m
14.05.2015 22:43 15,0 C 13,6 C 17,1 C 52 % 1009,9 hPa 0,0 l/m 21,0 km/h (4 Bft) O-NO67.5 60 0 min 0 lux 0 W/m
14.05.2015 22:48 15,0 C 13,6 C 17,1 C 52 % 1009,9 hPa 0,0 l/m 14,9 km/h (3 Bft) NO22.5 55 0 min 0 lux 0 W/m
14.05.2015 22:53 14,9 C 13,4 C 17,0 C 53 % 1009,9 hPa 0,0 l/m 13,6 km/h (3 Bft) O-NO67.5 70 0 min 0 lux 0 W/m
14.05.2015 22:58 14,8 C 13,3 C 17,1 C 53 % 1009,9 hPa 0,0 l/m 22,8 km/h (4 Bft) NO45 50 0 min 0 lux 0 W/m
14.05.2015 23:03 14,8 C 13,3 C 17,1 C 54 % 1009,9 hPa 0,0 l/m 22,1 km/h (4 Bft) O-NO67.5 65 0 min 0 lux 0 W/m
14.05.2015 23:08 14,8 C 13,3 C 17,0 C 54 % 1009,9 hPa 0,0 l/m 15,7 km/h (3 Bft) O-NO45 60 0 min 0 lux 0 W/m
14.05.2015 23:13 14,8 C 13,3 C 17,0 C 54 % 1009,9 hPa 0,0 l/m 19,8 km/h (3 Bft) NO67.5 55 0 min 0 lux 0 W/m
14.05.2015 23:18 14,7 C 13,2 C 17,0 C 54 % 1009,9 hPa 0,0 l/m 23,2 km/h (4 Bft) O-NO45 70 0 min 0 lux 0 W/m
14.05.2015 23:23 14,6 C 13,2 C 17,1 C 54 % 1009,9 hPa 0,0 l/m 17,8 km/h (3 Bft) O-NO45 70 0 min 0 lux 0 W/m
14.05.2015 23:28 14,5 C 13,2 C 17,0 C 54 % 1009,9 hPa 0,0 l/m 17,6 km/h (3 Bft) O-NO22.5 70 0 min 0 lux 0 W/m
14.05.2015 23:33 14,6 C 13,2 C 17,0 C 54 % 1009,9 hPa 0,0 l/m 21,2 km/h (4 Bft) NO67.5 55 0 min 0 lux 0 W/m
14.05.2015 23:37 14,6 C 13,1 C 17,0 C 54 % 1009,9 hPa 0,0 l/m 23,0 km/h (4 Bft) NO22.5 45 0 min 0 lux 0 W/m
14.05.2015 23:43 14,5 C 13,0 C 16,9 C 55 % 1009,9 hPa 0,0 l/m 20,8 km/h (4 Bft) O-NO45 65 0 min 0 lux 0 W/m
14.05.2015 23:48 14,4 C 12,9 C 16,9 C 55 % 1009,9 hPa 0,0 l/m 17,0 km/h (3 Bft) O-NO45 75 0 min 0 lux 0 W/m
14.05.2015 23:53 14,3 C 12,8 C 16,9 C 56 % 1009,9 hPa 0,0 l/m 17,7 km/h (3 Bft) O67.5 80 0 min 0 lux 0 W/m
14.05.2015 23:58 14,2 C 12,8 C 16,9 C 56 % 1009,9 hPa 0,0 l/m 21,3 km/h (4 Bft) O45 80 0 min 0 lux 0 W/m
_ Min-Zeit 06:33 05:33 10:03 15:43 17:23 - 00:53 - - - - -
Minimum _ 6,8 C 3,5 C 15,8 C 34 % 1008,8 hPa - 0,0 km/h (0 Bft) - - - - -
_ Max-Zeit 17:18 15:48 00:02 06:43 06:33 00:02 22:07 - - 11:58 05:38 09:38
Maximum _ 20,0 C 46,1 C 18,1 C 81 % 1015,1 hPa 0,0 l/m 29,8 km/h
O-NO (5 Bft)
- - 6 min 200 klux 1368 W/m
Durchschnitt _ 13,5 C 19,5 C 17,0 C 56 % 1012,7 hPa #0,0 l/m 11,6 km/h (2 Bft) NO - #7:35 h 26,8 klux 279 W/m